John F Kennedy International Airport New York US
ICAO: KJFK
IATA: JFK
Category: Large
Scheduled Services: Yes

Elevation: 13 ft
TransAlt. 18000 ft.

Airport Communications:
NEW YORK APP (ROBER):125.7
NEW YORK APPROACH (CAMRN):127.4
NEW YORK APPROACH (FINAL):132.4
ATIS:115.1
CLNC DEL:135.05
NEW YORK DEP:135.9
GND:121.9
NEW YORK RDO:115.9
KENNEDY TWR:119.1
UNICOM:122.95

KJFK Zoom In..

If you have problems with the map follow the link
https://www.worldairports.se/pages/airport.php?
ICAO=KJFK

Runways:

(A) RW 04L length 11351 ft width 150 ft
ILS 110.90 / hdg 45

(B) RW 04R length 8400 ft width 200 ft
ILS 109.50 / hdg 45

(C) RW 13L length 10000 ft width 150 ft
ILS 111.50 / hdg 135

(D) RW 13R length 14511 ft width 200 ft
---- / hdg 135

(E) RW 22L length 8400 ft width 200 ft
ILS 110.90 / hdg 225

(F) RW 22R length 11351 ft width 150 ft
ILS 109.50 / hdg 225

(G) RW 31L length 14511 ft width 200 ft
ILS 111.35 / hdg 315

(H) RW 31R length 10000 ft width 150 ft
ILS 111.50 / hdg 315

Location; KJFK
Day. 14 / Time. 10.51 Zulu
* Altimeter: 30.29
* Temperature: 03° c. 37.4°f.
* Wind from: 310° Speed 15 kn.
Dewpoint: -06° c.
Visibility: 10 Statute Miles.
Clouds: Few 4800 ft.
Clouds: Broken 26000 ft.

KJFK 141051Z 31015KT 10SM FEW048 BKN260 03/M06 A3029 RMK AO2 SLP256 T00281061


Wind From 310°
Speed 15 kn.

 
 
jpsmedia.com for Web Design worldairports.se 2018   terms of use